• în România
  • Lista ţărilor
  • Pe 7 zile
  • Temperatura apei
  • Hartă satelitară
  • Meteo pe hartă
  • Widget-uri
  • user-avatar
    Intrare

    Meteo pe oră la Konstantyna

    Astăzi, 23 Ianuarie, Marţi

    Timp Temperatura Precipitaţii Vânt Presiune Umiditate
    00:00 +9°C° 0 mm 2 m/s 714 mmHg 79%
    01:00 +9°C° 0 mm 2 m/s 714 mmHg 78%
    02:00 +8°C° 0 mm 2 m/s 714 mmHg 78%
    03:00 +9°C° 0 mm 1 m/s 714 mmHg 78%
    04:00 +9°C° 0 mm 1 m/s 714 mmHg 79%
    05:00 +9°C° 0 mm 1 m/s 714 mmHg 79%
    06:00 +8°C° 0 mm 1 m/s 714 mmHg 79%
    07:00 +9°C° 0 mm 2 m/s 714 mmHg 74%
    08:00 +12°C° 0 mm 2 m/s 715 mmHg 69%
    09:00 +13°C° 0 mm 2 m/s 715 mmHg 64%
    10:00 +13°C° 0 mm 3 m/s 715 mmHg 62%
    11:00 +14°C° 0 mm 4 m/s 715 mmHg 60%
    12:00 +15°C° 0 mm 4 m/s 716 mmHg 58%
    13:00 +15°C° 0 mm 4 m/s 716 mmHg 59%
    14:00 +15°C° 0 mm 4 m/s 716 mmHg 60%
    15:00 +15°C° 0 mm 4 m/s 716 mmHg 61%
    16:00 +13°C° 0 mm 4 m/s 716 mmHg 69%
    17:00 +11°C° 0 mm 3 m/s 716 mmHg 76%
    18:00 +9°C° 0 mm 2 m/s 716 mmHg 84%
    19:00 +8°C° 0 mm 2 m/s 716 mmHg 85%
    20:00 +9°C° 0 mm 1 m/s 716 mmHg 86%
    21:00 +8°C° 0 mm 1 m/s 716 mmHg 86%
    22:00 +8°C° 0 mm 1 m/s 717 mmHg 85%
    23:00 +7°C° 0 mm 1 m/s 717 mmHg 83%

    Mâine, 24 Ianuarie, Miercuri

    Timp Temperatura Precipitaţii Vânt Presiune Umiditate
    00:00 +7°C° 0 mm 1 m/s 717 mmHg 81%
    01:00 +7°C° 0 mm 1 m/s 717 mmHg 81%
    02:00 +7°C° 0 mm 1 m/s 717 mmHg 80%
    03:00 +6°C° 0 mm 1 m/s 716 mmHg 80%
    04:00 +6°C° 0 mm 1 m/s 717 mmHg 80%
    05:00 +6°C° 0 mm 1 m/s 717 mmHg 80%
    06:00 +6°C° 0 mm 1 m/s 717 mmHg 80%
    07:00 +8°C° 0 mm 1 m/s 717 mmHg 73%
    08:00 +10°C° 0 mm 1 m/s 717 mmHg 66%
    09:00 +11°C° 0 mm 1 m/s 718 mmHg 59%
    10:00 +13°C° 0 mm 1 m/s 718 mmHg 54%
    11:00 +14°C° 0 mm 1 m/s 718 mmHg 49%
    12:00 +14°C° 0 mm 0 m/s 718 mmHg 44%
    13:00 +16°C° 0 mm 1 m/s 718 mmHg 42%
    14:00 +16°C° 0 mm 1 m/s 717 mmHg 41%
    15:00 +16°C° 0 mm 1 m/s 717 mmHg 40%
    16:00 +14°C° 0 mm 1 m/s 717 mmHg 49%
    17:00 +13°C° 0 mm 1 m/s 717 mmHg 57%
    18:00 +11°C° 0 mm 1 m/s 716 mmHg 65%
    19:00 +10°C° 0 mm 1 m/s 717 mmHg 65%
    20:00 +10°C° 0 mm 1 m/s 717 mmHg 65%
    21:00 +10°C° 0 mm 1 m/s 717 mmHg 65%
    22:00 +10°C° 0 mm 1 m/s 716 mmHg 62%
    23:00 +9°C° 0 mm 1 m/s 716 mmHg 60%

    Poimâine, 25 Ianuarie, Joi

    Timp Temperatura Precipitaţii Vânt Presiune Umiditate
    00:00 +8°C° 0 mm 2 m/s 716 mmHg 58%
    01:00 +8°C° 0 mm 2 m/s 716 mmHg 56%
    02:00 +8°C° 0 mm 2 m/s 716 mmHg 55%
    03:00 +8°C° 0 mm 2 m/s 715 mmHg 54%
    04:00 +7°C° 0 mm 2 m/s 715 mmHg 55%
    05:00 +7°C° 0 mm 2 m/s 715 mmHg 56%
    06:00 +7°C° 0 mm 2 m/s 715 mmHg 57%
    07:00 +8°C° 0 mm 2 m/s 715 mmHg 55%
    08:00 +10°C° 0 mm 2 m/s 715 mmHg 54%
    09:00 +11°C° 0 mm 3 m/s 716 mmHg 52%
    10:00 +13°C° 0 mm 3 m/s 716 mmHg 47%
    11:00 +16°C° 0 mm 3 m/s 715 mmHg 42%
    12:00 +17°C° 0 mm 3 m/s 715 mmHg 37%
    13:00 +18°C° 0 mm 3 m/s 715 mmHg 38%
    14:00 +18°C° 0 mm 3 m/s 714 mmHg 38%
    15:00 +18°C° 0 mm 3 m/s 713 mmHg 38%
    16:00 +16°C° 0 mm 3 m/s 713 mmHg 44%
    17:00 +14°C° 0 mm 2 m/s 713 mmHg 49%
    18:00 +12°C° 0 mm 2 m/s 713 mmHg 55%
    19:00 +10°C° 0 mm 2 m/s 713 mmHg 57%
    20:00 +10°C° 0 mm 2 m/s 713 mmHg 59%
    21:00 +9°C° 0 mm 2 m/s 713 mmHg 62%
    22:00 +9°C° 0 mm 2 m/s 712 mmHg 63%
    23:00 +8°C° 0 mm 3 m/s 712 mmHg 65%

    26 Ianuarie, Vineri

    Timp Temperatura Precipitaţii Vânt Presiune Umiditate
    00:00 +8°C° 0 mm 3 m/s 712 mmHg 67%
    01:00 +8°C° 0 mm 3 m/s 711 mmHg 68%
    02:00 +8°C° 0 mm 3 m/s 711 mmHg 69%
    03:00 +7°C° 0 mm 3 m/s 711 mmHg 71%
    04:00 +7°C° 0 mm 3 m/s 711 mmHg 72%
    05:00 +7°C° 0 mm 3 m/s 710 mmHg 73%
    06:00 +7°C° 0 mm 2 m/s 710 mmHg 74%
    07:00 +8°C° 0 mm 3 m/s 710 mmHg 70%
    08:00 +10°C° 0 mm 3 m/s 711 mmHg 65%
    09:00 +11°C° 0 mm 3 m/s 711 mmHg 60%
    10:00 +13°C° 0 mm 3 m/s 711 mmHg 54%
    11:00 +14°C° 0 mm 4 m/s 711 mmHg 48%
    12:00 +17°C° 0 mm 4 m/s 711 mmHg 42%
    13:00 +15°C° 0,1 mm 4 m/s 711 mmHg 47%
    14:00 +15°C° 0,1 mm 5 m/s 710 mmHg 51%
    15:00 +14°C° 0,1 mm 5 m/s 710 mmHg 55%
    16:00 +13°C° 0,4 mm 4 m/s 710 mmHg 65%
    17:00 +11°C° 0,4 mm 4 m/s 710 mmHg 74%
    18:00 +9°C° 0,4 mm 3 m/s 710 mmHg 83%
    19:00 +9°C° 0,7 mm 3 m/s 710 mmHg 85%
    20:00 +8°C° 0,7 mm 3 m/s 711 mmHg 87%
    21:00 +8°C° 0,7 mm 2 m/s 711 mmHg 90%
    22:00 +8°C° 1,5 mm 2 m/s 711 mmHg 90%
    23:00 +7°C° 1,5 mm 2 m/s 710 mmHg 90%

    27 Ianuarie, Sâmbătă

    Timp Temperatura Precipitaţii Vânt Presiune Umiditate
    00:00 +7°C° 1,5 mm 2 m/s 710 mmHg 91%
    01:00 +6°C° 1,2 mm 2 m/s 710 mmHg 89%
    02:00 +6°C° 1,2 mm 2 m/s 709 mmHg 88%
    03:00 +6°C° 1,2 mm 2 m/s 709 mmHg 86%
    04:00 +7°C° 0,4 mm 1 m/s 709 mmHg 86%
    05:00 +7°C° 0,4 mm 1 m/s 709 mmHg 85%
    06:00 +7°C° 0,4 mm 1 m/s 708 mmHg 85%
    07:00 +7°C° 0,8 mm 1 m/s 709 mmHg 85%
    08:00 +6°C° 0,8 mm 2 m/s 709 mmHg 85%
    09:00 +6°C° 0,8 mm 2 m/s 709 mmHg 85%
    10:00 +5°C° 2,9 mm 3 m/s 709 mmHg 87%
    11:00 +5°C° 2,9 mm 3 m/s 708 mmHg 89%
    12:00 +5°C° 2,9 mm 4 m/s 708 mmHg 91%
    13:00 +3°C° 4,3 mm 5 m/s 708 mmHg 91%
    14:00 +3°C° 4,3 mm 6 m/s 708 mmHg 91%
    15:00 +3°C° 4,3 mm 7 m/s 707 mmHg 91%
    16:00 +3°C° 2,9 mm 7 m/s 707 mmHg 91%
    17:00 +2°C° 2,9 mm 8 m/s 708 mmHg 91%
    18:00 +2°C° 2,9 mm 8 m/s 708 mmHg 91%
    19:00 +3°C° 2,1 mm 7 m/s 708 mmHg 92%
    20:00 +3°C° 2,1 mm 7 m/s 708 mmHg 93%
    21:00 +3°C° 2,1 mm 6 m/s 708 mmHg 93%
    22:00 +3°C° 1,6 mm 6 m/s 708 mmHg 94%
    23:00 +3°C° 1,6 mm 5 m/s 708 mmHg 94%

    28 Ianuarie, Duminică

    Timp Temperatura Precipitaţii Vânt Presiune Umiditate
    00:00 +3°C° 1,6 mm 5 m/s 708 mmHg 94%
    01:00 +4°C° 0,4 mm 4 m/s 708 mmHg 94%
    02:00 +4°C° 0,4 mm 3 m/s 708 mmHg 95%
    03:00 +5°C° 0,4 mm 2 m/s 708 mmHg 95%
    04:00 +5°C° 0,2 mm 2 m/s 708 mmHg 94%
    05:00 +5°C° 0,2 mm 1 m/s 708 mmHg 94%
    06:00 +5°C° 0,2 mm 1 m/s 708 mmHg 94%
    07:00 +6°C° 0,2 mm 1 m/s 709 mmHg 90%
    08:00 +6°C° 0,2 mm 1 m/s 710 mmHg 87%
    09:00 +7°C° 0,2 mm 1 m/s 710 mmHg 83%
    10:00 +7°C° 0,1 mm 2 m/s 711 mmHg 77%
    11:00 +8°C° 0,1 mm 2 m/s 711 mmHg 71%
    12:00 +9°C° 0,1 mm 3 m/s 711 mmHg 65%
    13:00 +9°C° 0 mm 3 m/s 711 mmHg 64%
    14:00 +8°C° 0 mm 4 m/s 711 mmHg 63%
    15:00 +10°C° 0 mm 4 m/s 711 mmHg 63%
    16:00 +7°C° 0 mm 4 m/s 712 mmHg 66%
    17:00 +7°C° 0 mm 3 m/s 712 mmHg 70%
    18:00 +6°C° 0 mm 2 m/s 712 mmHg 74%
    19:00 +6°C° 0 mm 2 m/s 713 mmHg 75%
    20:00 +5°C° 0 mm 2 m/s 713 mmHg 76%
    21:00 +6°C° 0 mm 1 m/s 714 mmHg 76%
    22:00 +6°C° 0 mm 1 m/s 714 mmHg 76%
    23:00 +5°C° 0 mm 1 m/s 714 mmHg 76%
    Arată mai mult